TimeCST,TemperatureF,Dew PointF,Humidity,Sea Level PressureIn,VisibilityMPH,Wind Direction,Wind SpeedMPH,Gust SpeedMPH,PrecipitationIn,Events,Conditions,WindDirDegrees,DateUTC
12:54 AM,25.0,17.1,72,30.01,10.0,SSW,10.4,-,N/A,,Clear,210,2013-01-31 06:54:00
1:54 AM,25.0,16.0,69,30.00,10.0,SW,12.7,-,N/A,,Clear,220,2013-01-31 07:54:00
2:54 AM,26.1,16.0,66,30.01,10.0,SW,10.4,-,N/A,,Clear,230,2013-01-31 08:54:00
3:54 AM,25.0,16.0,69,30.00,10.0,WSW,6.9,-,N/A,,Clear,240,2013-01-31 09:54:00
4:54 AM,26.1,16.0,66,30.01,10.0,West,9.2,-,N/A,,Clear,280,2013-01-31 10:54:00
5:54 AM,26.1,17.1,69,30.01,10.0,West,10.4,-,N/A,,Clear,280,2013-01-31 11:54:00
6:54 AM,27.0,18.0,69,30.03,10.0,WNW,8.1,-,N/A,,Partly Cloudy,290,2013-01-31 12:54:00
7:54 AM,25.0,19.0,78,30.07,10.0,NW,8.1,-,N/A,,Clear,320,2013-01-31 13:54:00
8:54 AM,28.0,19.9,72,30.12,10.0,North,10.4,-,N/A,,Mostly Cloudy,360,2013-01-31 14:54:00
9:54 AM,28.9,19.9,69,30.17,10.0,North,11.5,-,N/A,,Partly Cloudy,350,2013-01-31 15:54:00
10:54 AM,30.0,19.0,64,30.23,10.0,North,15.0,-,N/A,,Overcast,350,2013-01-31 16:54:00
11:54 AM,28.0,17.1,63,30.28,10.0,North,20.7,25.3,N/A,,Overcast,360,2013-01-31 17:54:00
12:54 PM,28.9,16.0,58,30.28,10.0,North,20.7,28.8,N/A,,Overcast,360,2013-01-31 18:54:00
2:54 PM,26.1,10.9,53,30.31,10.0,North,21.9,28.8,N/A,,Clear,10,2013-01-31 20:54:00
3:54 PM,25.0,8.1,49,30.34,10.0,North,20.7,26.5,N/A,,Clear,350,2013-01-31 21:54:00
4:54 PM,23.0,7.0,50,30.37,10.0,North,17.3,-,N/A,,Clear,360,2013-01-31 22:54:00
5:54 PM,19.0,5.0,54,30.40,10.0,North,12.7,-,N/A,,Clear,360,2013-01-31 23:54:00
6:54 PM,16.0,5.0,62,30.45,10.0,NNW,8.1,-,N/A,,Clear,340,2013-02-01 00:54:00
8:54 PM,14.0,3.9,64,30.50,10.0,North,3.5,-,N/A,,Clear,360,2013-02-01 02:54:00
10:54 PM,12.9,5.0,71,30.49,10.0,East,3.5,-,N/A,,Scattered Clouds,80,2013-02-01 04:54:00
11:54 PM,15.1,7.0,70,30.46,10.0,East,4.6,-,N/A,,Overcast,100,2013-02-01 05:54:00